Time,TemperatureF,DewpointF,PressureIn,WindDirection,WindDirectionDegrees,WindSpeedMPH,WindSpeedGustMPH,Humidity,HourlyPrecipIn,Conditions,Clouds,dailyrainin,SoftwareType,DateUTC
2013-09-20 00:00:00,48.0,44.3,29.69,East,80,0.0,4.0,87,0.00,,,0.00,Wunderground v.1.15,2013-09-20 06:00:00,
2013-09-20 00:05:00,47.9,44.2,29.69,East,80,0.0,4.0,87,0.00,,,0.00,Wunderground v.1.15,2013-09-20 06:05:00,
2013-09-20 00:10:00,47.9,44.2,29.69,East,80,0.0,4.0,87,0.00,,,0.00,Wunderground v.1.15,2013-09-20 06:10:00,
2013-09-20 00:15:00,47.9,44.5,29.69,East,80,0.0,4.0,88,0.00,,,0.00,Wunderground v.1.15,2013-09-20 06:15:00,
2013-09-20 00:20:00,47.8,44.4,29.69,ENE,71,0.0,4.0,88,0.00,,,0.00,Wunderground v.1.15,2013-09-20 06:20:00,
2013-09-20 00:30:00,47.7,44.3,29.69,ENE,71,0.0,4.0,88,0.00,,,0.00,Wunderground v.1.15,2013-09-20 06:30:00,
2013-09-20 00:35:00,47.6,44.2,29.69,ENE,71,0.0,4.0,88,0.00,,,0.00,Wunderground v.1.15,2013-09-20 06:35:00,
2013-09-20 00:40:00,47.5,44.1,29.69,ENE,71,0.0,4.0,88,0.00,,,0.00,Wunderground v.1.15,2013-09-20 06:40:00,
2013-09-20 00:45:00,47.4,44.3,29.69,ENE,71,0.0,4.0,89,0.00,,,0.00,Wunderground v.1.15,2013-09-20 06:45:00,
2013-09-20 00:50:00,47.3,44.2,29.69,East,80,0.0,4.0,89,0.00,,,0.00,Wunderground v.1.15,2013-09-20 06:50:00,
2013-09-20 00:55:00,47.1,44.0,29.69,East,80,0.0,4.0,89,0.00,,,0.00,Wunderground v.1.15,2013-09-20 06:55:00,
2013-09-20 01:00:00,47.0,44.2,29.69,East,80,0.0,4.0,90,0.00,,,0.00,Wunderground v.1.15,2013-09-20 07:00:00,
2013-09-20 01:05:00,46.9,44.1,29.69,East,82,0.0,4.0,90,0.00,,,0.00,Wunderground v.1.15,2013-09-20 07:05:00,
2013-09-20 01:10:00,46.8,44.3,29.69,East,85,0.0,4.0,91,0.00,,,0.00,Wunderground v.1.15,2013-09-20 07:10:00,
2013-09-20 01:15:00,46.7,44.2,29.69,East,86,0.0,4.0,91,0.00,,,0.00,Wunderground v.1.15,2013-09-20 07:15:00,
2013-09-20 01:20:00,46.6,44.1,29.69,East,86,0.0,4.0,91,0.00,,,0.00,Wunderground v.1.15,2013-09-20 07:20:00,
2013-09-20 01:25:00,46.5,44.3,29.69,East,86,0.0,4.0,92,0.00,,,0.00,Wunderground v.1.15,2013-09-20 07:25:00,
2013-09-20 01:30:00,46.4,44.2,29.69,East,86,0.0,4.0,92,0.00,,,0.00,Wunderground v.1.15,2013-09-20 07:30:00,
2013-09-20 01:35:00,46.4,44.2,29.69,East,86,0.0,4.0,92,0.00,,,0.00,Wunderground v.1.15,2013-09-20 07:35:00,
2013-09-20 01:40:00,46.4,44.2,29.70,East,87,0.0,4.0,92,0.00,,,0.00,Wunderground v.1.15,2013-09-20 07:40:00,
2013-09-20 01:45:00,46.3,44.1,29.69,East,87,0.0,4.0,92,0.00,,,0.00,Wunderground v.1.15,2013-09-20 07:45:00,
2013-09-20 01:50:00,46.2,44.3,29.69,East,87,0.0,4.0,93,0.00,,,0.00,Wunderground v.1.15,2013-09-20 07:50:00,
2013-09-20 01:55:00,46.2,44.3,29.69,East,87,0.0,4.0,93,0.00,,,0.00,Wunderground v.1.15,2013-09-20 07:55:00,
2013-09-20 02:00:00,46.1,44.2,29.69,East,87,0.0,4.0,93,0.00,,,0.00,Wunderground v.1.15,2013-09-20 08:00:00,
2013-09-20 02:05:00,46.1,44.2,29.69,East,87,0.0,4.0,93,0.00,,,0.00,Wunderground v.1.15,2013-09-20 08:05:00,
2013-09-20 02:10:00,46.0,44.1,29.69,East,87,0.0,4.0,93,0.00,,,0.00,Wunderground v.1.15,2013-09-20 08:10:00,
2013-09-20 02:15:00,46.0,44.1,29.69,East,87,0.0,4.0,93,0.00,,,0.00,Wunderground v.1.15,2013-09-20 08:15:00,
2013-09-20 02:20:00,45.9,44.0,29.69,East,87,0.0,4.0,93,0.00,,,0.00,Wunderground v.1.15,2013-09-20 08:20:00,
2013-09-20 02:25:00,45.9,44.0,29.69,East,87,0.0,4.0,93,0.00,,,0.00,Wunderground v.1.15,2013-09-20 08:25:00,
2013-09-20 02:30:00,45.8,43.9,29.69,East,87,0.0,4.0,93,0.00,,,0.00,Wunderground v.1.15,2013-09-20 08:30:00,
2013-09-20 02:35:00,45.7,43.8,29.69,East,87,0.0,4.0,93,0.00,,,0.00,Wunderground v.1.15,2013-09-20 08:35:00,
2013-09-20 02:40:00,45.6,43.7,29.69,East,87,0.0,4.0,93,0.00,,,0.00,Wunderground v.1.15,2013-09-20 08:40:00,
2013-09-20 02:45:00,45.6,43.7,29.69,East,87,0.0,4.0,93,0.00,,,0.00,Wunderground v.1.15,2013-09-20 08:45:00,
2013-09-20 02:50:00,45.5,43.9,29.68,East,87,0.0,4.0,94,0.00,,,0.00,Wunderground v.1.15,2013-09-20 08:50:00,
2013-09-20 02:55:00,45.5,43.9,29.68,East,87,0.0,4.0,94,0.00,,,0.00,Wunderground v.1.15,2013-09-20 08:55:00,
2013-09-20 03:00:00,45.5,43.9,29.68,East,87,0.0,4.0,94,0.00,,,0.00,Wunderground v.1.15,2013-09-20 09:00:00,
2013-09-20 03:05:00,45.5,43.9,29.68,East,87,0.0,4.0,94,0.00,,,0.00,Wunderground v.1.15,2013-09-20 09:05:00,
2013-09-20 03:10:00,45.5,43.9,29.68,East,87,0.0,4.0,94,0.00,,,0.00,Wunderground v.1.15,2013-09-20 09:10:00,
2013-09-20 03:15:00,45.5,43.9,29.68,East,87,0.0,4.0,94,0.00,,,0.00,Wunderground v.1.15,2013-09-20 09:15:00,
2013-09-20 03:20:00,45.5,43.9,29.68,East,87,0.0,4.0,94,0.00,,,0.00,Wunderground v.1.15,2013-09-20 09:20:00,
2013-09-20 03:25:00,45.6,44.0,29.68,East,87,0.0,4.0,94,0.00,,,0.00,Wunderground v.1.15,2013-09-20 09:25:00,
2013-09-20 03:35:00,45.7,44.1,29.68,East,87,0.0,4.0,94,0.00,,,0.00,Wunderground v.1.15,2013-09-20 09:35:00,
2013-09-20 03:40:00,45.7,44.1,29.68,East,87,0.0,4.0,94,0.00,,,0.00,Wunderground v.1.15,2013-09-20 09:40:00,
2013-09-20 03:45:00,45.7,44.1,29.68,East,87,0.0,4.0,94,0.00,,,0.00,Wunderground v.1.15,2013-09-20 09:45:00,
2013-09-20 03:50:00,45.7,44.1,29.68,East,87,0.0,4.0,94,0.00,,,0.00,Wunderground v.1.15,2013-09-20 09:50:00,
2013-09-20 03:55:00,45.7,44.1,29.68,East,87,0.0,4.0,94,0.00,,,0.00,Wunderground v.1.15,2013-09-20 09:55:00,
2013-09-20 04:00:00,45.7,44.1,29.68,East,87,0.0,4.0,94,0.00,,,0.00,Wunderground v.1.15,2013-09-20 10:00:00,
2013-09-20 04:05:00,45.8,44.2,29.68,East,87,0.0,4.0,94,0.00,,,0.00,Wunderground v.1.15,2013-09-20 10:05:00,
2013-09-20 04:10:00,45.8,44.2,29.68,East,87,0.0,4.0,94,0.00,,,0.00,Wunderground v.1.15,2013-09-20 10:10:00,
2013-09-20 04:15:00,45.7,44.1,29.68,East,87,0.0,4.0,94,0.00,,,0.00,Wunderground v.1.15,2013-09-20 10:15:00,
2013-09-20 04:20:00,45.6,44.0,29.68,East,87,0.0,4.0,94,0.00,,,0.00,Wunderground v.1.15,2013-09-20 10:20:00,
2013-09-20 04:30:00,45.6,44.3,29.68,East,87,0.0,4.0,95,0.00,,,0.00,Wunderground v.1.15,2013-09-20 10:30:00,
2013-09-20 04:35:00,45.5,43.9,29.67,East,87,0.0,4.0,94,0.00,,,0.00,Wunderground v.1.15,2013-09-20 10:35:00,
2013-09-20 04:40:00,45.4,44.1,29.68,East,87,0.0,4.0,95,0.00,,,0.00,Wunderground v.1.15,2013-09-20 10:40:00,
2013-09-20 04:45:00,45.4,44.1,29.67,East,87,0.0,4.0,95,0.00,,,0.00,Wunderground v.1.15,2013-09-20 10:45:00,
2013-09-20 04:50:00,45.4,44.1,29.67,East,87,0.0,4.0,95,0.00,,,0.00,Wunderground v.1.15,2013-09-20 10:50:00,
2013-09-20 04:55:00,45.3,44.0,29.67,East,87,0.0,4.0,95,0.00,,,0.00,Wunderground v.1.15,2013-09-20 10:55:00,
2013-09-20 05:00:00,45.3,44.0,29.67,East,87,0.0,4.0,95,0.00,,,0.00,Wunderground v.1.15,2013-09-20 11:00:00,
2013-09-20 05:10:00,45.4,44.1,29.67,East,87,0.0,4.0,95,0.00,,,0.00,Wunderground v.1.15,2013-09-20 11:10:00,
2013-09-20 05:15:00,45.3,44.0,29.67,East,87,0.0,4.0,95,0.00,,,0.00,Wunderground v.1.15,2013-09-20 11:15:00,
2013-09-20 05:20:00,45.3,43.7,29.67,East,87,0.0,4.0,94,0.00,,,0.00,Wunderground v.1.15,2013-09-20 11:20:00,
2013-09-20 05:30:00,45.4,43.8,29.67,East,87,0.0,4.0,94,0.00,,,0.00,Wunderground v.1.15,2013-09-20 11:30:00,
2013-09-20 05:35:00,45.5,43.9,29.67,East,87,0.0,4.0,94,0.00,,,0.00,Wunderground v.1.15,2013-09-20 11:35:00,
2013-09-20 05:45:00,45.6,44.0,29.67,East,87,0.0,4.0,94,0.00,,,0.00,Wunderground v.1.15,2013-09-20 11:45:00,
2013-09-20 05:50:00,45.6,44.0,29.67,East,87,0.0,4.0,94,0.00,,,0.00,Wunderground v.1.15,2013-09-20 11:50:00,
2013-09-20 05:55:00,45.6,44.3,29.67,East,87,0.0,4.0,95,0.00,,,0.00,Wunderground v.1.15,2013-09-20 11:55:00,
2013-09-20 06:00:00,45.6,44.0,29.67,East,87,0.0,4.0,94,0.00,,,0.00,Wunderground v.1.15,2013-09-20 12:00:00,
2013-09-20 06:05:00,45.5,43.9,29.67,East,87,0.0,4.0,94,0.00,,,0.00,Wunderground v.1.15,2013-09-20 12:05:00,
2013-09-20 06:10:00,45.4,44.1,29.68,East,87,0.0,4.0,95,0.00,,,0.00,Wunderground v.1.15,2013-09-20 12:10:00,
2013-09-20 06:15:00,45.4,44.1,29.68,East,87,0.0,4.0,95,0.00,,,0.00,Wunderground v.1.15,2013-09-20 12:15:00,
2013-09-20 06:20:00,45.4,44.1,29.68,East,87,0.0,4.0,95,0.00,,,0.00,Wunderground v.1.15,2013-09-20 12:20:00,
2013-09-20 06:25:00,45.4,44.1,29.68,East,87,0.0,4.0,95,0.00,,,0.00,Wunderground v.1.15,2013-09-20 12:25:00,
2013-09-20 06:30:00,45.3,44.0,29.68,East,87,0.0,4.0,95,0.00,,,0.00,Wunderground v.1.15,2013-09-20 12:30:00,
2013-09-20 06:35:00,45.3,44.0,29.68,East,87,0.0,4.0,95,0.00,,,0.00,Wunderground v.1.15,2013-09-20 12:35:00,
2013-09-20 06:40:00,45.2,43.9,29.68,East,87,0.0,4.0,95,0.00,,,0.00,Wunderground v.1.15,2013-09-20 12:40:00,
2013-09-20 06:45:00,45.2,43.9,29.68,East,87,0.0,4.0,95,0.00,,,0.00,Wunderground v.1.15,2013-09-20 12:45:00,
2013-09-20 06:50:00,45.2,43.9,29.68,East,87,0.0,4.0,95,0.00,,,0.00,Wunderground v.1.15,2013-09-20 12:50:00,
2013-09-20 06:55:00,45.1,43.8,29.68,East,87,0.0,4.0,95,0.00,,,0.00,Wunderground v.1.15,2013-09-20 12:55:00,
2013-09-20 07:05:00,44.8,43.2,29.68,East,87,0.0,4.0,94,0.00,,,0.00,Wunderground v.1.15,2013-09-20 13:05:00,
2013-09-20 07:10:00,44.7,43.4,29.68,East,87,0.0,4.0,95,0.00,,,0.00,Wunderground v.1.15,2013-09-20 13:10:00,
2013-09-20 07:15:00,44.6,43.3,29.68,East,87,0.0,4.0,95,0.00,,,0.00,Wunderground v.1.15,2013-09-20 13:15:00,
2013-09-20 07:20:00,44.6,43.3,29.68,East,87,0.0,4.0,95,0.00,,,0.00,Wunderground v.1.15,2013-09-20 13:20:00,
2013-09-20 07:25:00,44.6,43.3,29.67,East,87,0.0,4.0,95,0.00,,,0.00,Wunderground v.1.15,2013-09-20 13:25:00,
2013-09-20 07:30:00,44.5,43.2,29.67,East,87,0.0,4.0,95,0.00,,,0.00,Wunderground v.1.15,2013-09-20 13:30:00,
2013-09-20 07:35:00,44.5,43.2,29.68,East,87,0.0,4.0,95,0.00,,,0.00,Wunderground v.1.15,2013-09-20 13:35:00,
2013-09-20 07:40:00,44.4,43.1,29.68,East,87,0.0,4.0,95,0.00,,,0.00,Wunderground v.1.15,2013-09-20 13:40:00,
2013-09-20 07:45:00,44.3,42.7,29.68,East,87,0.0,4.0,94,0.00,,,0.00,Wunderground v.1.15,2013-09-20 13:45:00,
2013-09-20 07:50:00,44.1,42.5,29.68,East,87,0.0,4.0,94,0.00,,,0.00,Wunderground v.1.15,2013-09-20 13:50:00,
2013-09-20 07:55:00,43.9,42.6,29.68,East,87,0.0,4.0,95,0.00,,,0.00,Wunderground v.1.15,2013-09-20 13:55:00,
2013-09-20 08:00:00,43.9,42.6,29.68,East,87,0.0,4.0,95,0.00,,,0.00,Wunderground v.1.15,2013-09-20 14:00:00,
2013-09-20 08:05:00,44.1,42.8,29.68,East,87,0.0,4.0,95,0.00,,,0.00,Wunderground v.1.15,2013-09-20 14:05:00,
2013-09-20 08:10:00,44.7,43.6,29.68,East,87,0.0,4.0,96,0.00,,,0.00,Wunderground v.1.15,2013-09-20 14:10:00,
2013-09-20 08:15:00,45.6,44.0,29.67,East,87,0.0,4.0,94,0.00,,,0.00,Wunderground v.1.15,2013-09-20 14:15:00,
2013-09-20 08:20:00,46.1,43.9,29.67,East,87,0.0,4.0,92,0.00,,,0.00,Wunderground v.1.15,2013-09-20 14:20:00,
2013-09-20 08:25:00,46.3,43.5,29.67,East,87,0.0,4.0,90,0.00,,,0.00,Wunderground v.1.15,2013-09-20 14:25:00,
2013-09-20 08:35:00,46.6,44.1,29.67,East,87,0.0,4.0,91,0.00,,,0.00,Wunderground v.1.15,2013-09-20 14:35:00,
2013-09-20 08:40:00,46.9,44.1,29.67,East,87,0.0,4.0,90,0.00,,,0.00,Wunderground v.1.15,2013-09-20 14:40:00,
2013-09-20 08:45:00,47.2,44.1,29.67,East,87,0.0,4.0,89,0.00,,,0.00,Wunderground v.1.15,2013-09-20 14:45:00,
2013-09-20 08:50:00,47.9,44.8,29.67,West,266,0.0,4.0,89,0.00,,,0.00,Wunderground v.1.15,2013-09-20 14:50:00,
2013-09-20 08:55:00,48.3,44.6,29.67,WSW,257,0.0,4.0,87,0.00,,,0.00,Wunderground v.1.15,2013-09-20 14:55:00,
2013-09-20 09:00:00,48.3,43.7,29.67,WNW,300,0.0,4.0,84,0.00,,,0.00,Wunderground v.1.15,2013-09-20 15:00:00,
2013-09-20 09:15:00,50.1,45.1,29.67,West,268,0.0,4.0,83,0.00,,,0.00,Wunderground v.1.15,2013-09-20 15:15:00,
2013-09-20 09:20:00,50.9,45.6,29.66,SW,236,0.0,4.0,82,0.00,,,0.00,Wunderground v.1.15,2013-09-20 15:20:00,
2013-09-20 09:25:00,51.7,45.4,29.66,SSW,198,0.0,4.0,79,0.00,,,0.00,Wunderground v.1.15,2013-09-20 15:25:00,
2013-09-20 09:30:00,52.4,45.4,29.66,SSW,192,0.0,4.0,77,0.00,,,0.00,Wunderground v.1.15,2013-09-20 15:30:00,
2013-09-20 09:35:00,53.0,46.0,29.66,South,187,0.0,4.0,77,0.00,,,0.00,Wunderground v.1.15,2013-09-20 15:35:00,
2013-09-20 09:40:00,53.7,46.0,29.66,SSE,153,0.0,4.0,75,0.00,,,0.00,Wunderground v.1.15,2013-09-20 15:40:00,
2013-09-20 09:45:00,53.9,45.8,29.66,SE,138,0.0,4.0,74,0.00,,,0.00,Wunderground v.1.15,2013-09-20 15:45:00,
2013-09-20 09:50:00,54.1,46.7,29.67,SE,126,0.0,4.0,76,0.00,,,0.00,Wunderground v.1.15,2013-09-20 15:50:00,
2013-09-20 10:00:00,54.9,46.0,29.67,SE,130,0.0,4.0,72,0.00,,,0.00,Wunderground v.1.15,2013-09-20 16:00:00,
2013-09-20 10:05:00,55.3,45.7,29.66,SE,130,0.0,4.0,70,0.00,,,0.00,Wunderground v.1.15,2013-09-20 16:05:00,
2013-09-20 10:10:00,55.7,46.1,29.66,SE,127,0.0,4.0,70,0.00,,,0.00,Wunderground v.1.15,2013-09-20 16:10:00,
2013-09-20 10:15:00,55.9,47.0,29.66,ESE,123,0.0,4.0,72,0.00,,,0.00,Wunderground v.1.15,2013-09-20 16:15:00,
2013-09-20 10:20:00,55.9,46.6,29.66,ESE,123,0.0,4.0,71,0.00,,,0.00,Wunderground v.1.15,2013-09-20 16:20:00,
2013-09-20 10:25:00,55.8,46.2,29.66,ESE,123,0.0,4.0,70,0.00,,,0.00,Wunderground v.1.15,2013-09-20 16:25:00,
2013-09-20 10:30:00,55.5,46.6,29.66,ESE,114,0.0,5.0,72,0.00,,,0.00,Wunderground v.1.15,2013-09-20 16:30:00,
2013-09-20 10:35:00,55.2,46.0,29.66,ESE,113,0.0,5.0,71,0.00,,,0.00,Wunderground v.1.15,2013-09-20 16:35:00,
2013-09-20 10:40:00,55.5,46.6,29.66,ESE,113,0.0,4.0,72,0.00,,,0.00,Wunderground v.1.15,2013-09-20 16:40:00,
2013-09-20 10:45:00,56.4,46.7,29.66,ESE,113,0.0,4.0,70,0.00,,,0.00,Wunderground v.1.15,2013-09-20 16:45:00,
2013-09-20 10:50:00,56.8,47.1,29.66,ESE,114,0.0,4.0,70,0.00,,,0.00,Wunderground v.1.15,2013-09-20 16:50:00,
2013-09-20 10:55:00,56.9,46.4,29.66,ESE,114,0.0,4.0,68,0.00,,,0.00,Wunderground v.1.15,2013-09-20 16:55:00,
2013-09-20 11:00:00,56.3,46.6,29.66,ESE,114,0.0,4.0,70,0.00,,,0.00,Wunderground v.1.15,2013-09-20 17:00:00,
2013-09-20 11:05:00,56.2,46.9,29.66,ESE,114,0.0,4.0,71,0.00,,,0.00,Wunderground v.1.15,2013-09-20 17:05:00,
2013-09-20 11:10:00,56.5,46.8,29.65,ESE,114,0.0,4.0,70,0.00,,,0.00,Wunderground v.1.15,2013-09-20 17:10:00,
2013-09-20 11:15:00,57.1,46.6,29.65,ESE,114,1.0,4.0,68,0.00,,,0.00,Wunderground v.1.15,2013-09-20 17:15:00,
2013-09-20 11:20:00,57.3,47.2,29.65,ESE,114,1.0,1.0,69,0.00,,,0.00,Wunderground v.1.15,2013-09-20 17:20:00,
2013-09-20 11:25:00,57.9,47.4,29.65,ESE,114,1.0,4.0,68,0.00,,,0.00,Wunderground v.1.15,2013-09-20 17:25:00,
2013-09-20 11:30:00,58.4,47.1,29.65,ESE,114,0.0,4.0,66,0.00,,,0.00,Wunderground v.1.15,2013-09-20 17:30:00,
2013-09-20 11:35:00,58.7,47.0,29.65,ESE,114,1.0,4.0,65,0.00,,,0.00,Wunderground v.1.15,2013-09-20 17:35:00,
2013-09-20 11:40:00,58.8,46.6,29.65,ESE,121,1.0,1.0,64,0.00,,,0.00,Wunderground v.1.15,2013-09-20 17:40:00,
2013-09-20 11:45:00,59.0,46.4,29.65,ESE,121,1.0,4.0,63,0.00,,,0.00,Wunderground v.1.15,2013-09-20 17:45:00,
2013-09-20 11:50:00,59.2,47.0,29.64,ESE,120,0.0,4.0,64,0.00,,,0.00,Wunderground v.1.15,2013-09-20 17:50:00,
2013-09-20 11:55:00,59.6,46.6,29.64,ESE,120,0.0,4.0,62,0.00,,,0.00,Wunderground v.1.15,2013-09-20 17:55:00,
2013-09-20 12:00:00,60.1,46.6,29.64,ESE,120,0.0,4.0,61,0.00,,,0.00,Wunderground v.1.15,2013-09-20 18:00:00,
2013-09-20 12:05:00,60.4,46.9,29.64,ESE,117,0.0,4.0,61,0.00,,,0.00,Wunderground v.1.15,2013-09-20 18:05:00,
2013-09-20 12:10:00,60.6,45.7,29.64,ESE,120,1.0,1.0,58,0.00,,,0.00,Wunderground v.1.15,2013-09-20 18:10:00,
2013-09-20 12:15:00,60.8,46.4,29.64,ESE,115,1.0,4.0,59,0.00,,,0.00,Wunderground v.1.15,2013-09-20 18:15:00,
2013-09-20 12:20:00,60.8,45.0,29.64,ESE,115,0.0,4.0,56,0.00,,,0.00,Wunderground v.1.15,2013-09-20 18:20:00,
2013-09-20 12:25:00,60.8,44.5,29.64,ESE,115,0.0,4.0,55,0.00,,,0.00,Wunderground v.1.15,2013-09-20 18:25:00,
2013-09-20 12:35:00,62.0,46.6,29.63,SE,142,0.0,4.0,57,0.00,,,0.00,Wunderground v.1.15,2013-09-20 18:35:00,
2013-09-20 12:40:00,62.7,47.2,29.63,SE,143,0.0,4.0,57,0.00,,,0.00,Wunderground v.1.15,2013-09-20 18:40:00,
2013-09-20 12:45:00,63.3,46.4,29.63,SSW,193,0.0,4.0,54,0.00,,,0.00,Wunderground v.1.15,2013-09-20 18:45:00,
2013-09-20 12:50:00,63.5,44.5,29.63,South,186,0.0,4.0,50,0.00,,,0.00,Wunderground v.1.15,2013-09-20 18:50:00,
2013-09-20 12:55:00,63.8,44.8,29.63,South,183,0.0,4.0,50,0.00,,,0.00,Wunderground v.1.15,2013-09-20 18:55:00,
2013-09-20 13:00:00,64.2,44.6,29.63,SW,233,0.0,5.0,49,0.00,,,0.00,Wunderground v.1.15,2013-09-20 19:00:00,
2013-09-20 13:05:00,64.3,43.1,29.63,SSE,151,1.0,5.0,46,0.00,,,0.00,Wunderground v.1.15,2013-09-20 19:05:00,
2013-09-20 13:10:00,64.5,45.4,29.63,SE,135,2.0,2.0,50,0.00,,,0.00,Wunderground v.1.15,2013-09-20 19:10:00,
2013-09-20 13:15:00,64.4,45.9,29.62,SE,143,1.0,4.0,51,0.00,,,0.00,Wunderground v.1.15,2013-09-20 19:15:00,
2013-09-20 13:20:00,64.3,45.3,29.62,SSE,154,1.0,1.0,50,0.00,,,0.00,Wunderground v.1.15,2013-09-20 19:20:00,
2013-09-20 13:25:00,64.4,43.7,29.62,SE,136,1.0,4.0,47,0.00,,,0.00,Wunderground v.1.15,2013-09-20 19:25:00,
2013-09-20 13:30:00,64.4,45.3,29.62,ESE,122,2.0,2.0,50,0.00,,,0.00,Wunderground v.1.15,2013-09-20 19:30:00,
2013-09-20 13:35:00,64.6,45.0,29.62,SSE,147,1.0,4.0,49,0.00,,,0.00,Wunderground v.1.15,2013-09-20 19:35:00,
2013-09-20 13:40:00,64.6,43.3,29.62,SE,139,1.0,1.0,46,0.00,,,0.00,Wunderground v.1.15,2013-09-20 19:40:00,
2013-09-20 13:45:00,64.9,42.5,29.61,SE,128,1.0,4.0,44,0.00,,,0.00,Wunderground v.1.15,2013-09-20 19:45:00,
2013-09-20 13:50:00,65.3,42.8,29.61,SE,139,1.0,1.0,44,0.00,,,0.00,Wunderground v.1.15,2013-09-20 19:50:00,
2013-09-20 13:55:00,65.8,44.4,29.61,SE,132,1.0,2.0,46,0.00,,,0.00,Wunderground v.1.15,2013-09-20 19:55:00,
2013-09-20 14:00:00,65.9,45.1,29.61,SE,128,0.0,4.0,47,0.00,,,0.00,Wunderground v.1.15,2013-09-20 20:00:00,
2013-09-20 14:05:00,65.9,45.1,29.61,SE,134,0.0,4.0,47,0.00,,,0.00,Wunderground v.1.15,2013-09-20 20:05:00,
2013-09-20 14:10:00,66.2,43.0,29.61,SE,134,0.0,4.0,43,0.00,,,0.00,Wunderground v.1.15,2013-09-20 20:10:00,
2013-09-20 14:15:00,66.5,43.9,29.61,SE,134,0.0,4.0,44,0.00,,,0.00,Wunderground v.1.15,2013-09-20 20:15:00,
2013-09-20 14:20:00,66.6,44.0,29.61,SE,132,0.0,4.0,44,0.00,,,0.00,Wunderground v.1.15,2013-09-20 20:20:00,
2013-09-20 14:25:00,66.5,43.3,29.60,ESE,115,0.0,4.0,43,0.00,,,0.00,Wunderground v.1.15,2013-09-20 20:25:00,
2013-09-20 14:35:00,67.2,38.6,29.60,ESE,115,0.0,4.0,35,0.00,,,0.00,Wunderground v.1.15,2013-09-20 20:35:00,
2013-09-20 14:40:00,67.6,39.0,29.60,SE,128,0.0,4.0,35,0.00,,,0.00,Wunderground v.1.15,2013-09-20 20:40:00,
2013-09-20 14:45:00,67.7,40.5,29.60,SE,128,0.0,4.0,37,0.00,,,0.00,Wunderground v.1.15,2013-09-20 20:45:00,
2013-09-20 14:50:00,68.1,38.7,29.60,SE,128,0.0,4.0,34,0.00,,,0.00,Wunderground v.1.15,2013-09-20 20:50:00,
2013-09-20 14:55:00,68.4,41.8,29.60,SSE,158,1.0,4.0,38,0.00,,,0.00,Wunderground v.1.15,2013-09-20 20:55:00,
2013-09-20 15:05:00,67.9,45.8,29.60,NE,51,1.0,4.0,45,0.00,,,0.00,Wunderground v.1.15,2013-09-20 21:05:00,
2013-09-20 15:10:00,67.1,44.4,29.59,NE,54,1.0,4.0,44,0.00,,,0.00,Wunderground v.1.15,2013-09-20 21:10:00,
2013-09-20 15:15:00,66.4,44.4,29.59,NE,53,0.0,4.0,45,0.00,,,0.00,Wunderground v.1.15,2013-09-20 21:15:00,
2013-09-20 15:20:00,66.0,44.0,29.59,ENE,74,0.0,4.0,45,0.00,,,0.00,Wunderground v.1.15,2013-09-20 21:20:00,
2013-09-20 15:25:00,66.1,44.7,29.59,ENE,61,1.0,4.0,46,0.00,,,0.00,Wunderground v.1.15,2013-09-20 21:25:00,
2013-09-20 15:30:00,65.9,44.5,29.59,ENE,68,0.0,4.0,46,0.00,,,0.00,Wunderground v.1.15,2013-09-20 21:30:00,
2013-09-20 15:35:00,65.7,44.3,29.59,ENE,67,0.0,4.0,46,0.00,,,0.00,Wunderground v.1.15,2013-09-20 21:35:00,
2013-09-20 15:40:00,65.8,44.4,29.59,ENE,62,0.0,4.0,46,0.00,,,0.00,Wunderground v.1.15,2013-09-20 21:40:00,
2013-09-20 15:45:00,65.6,44.8,29.59,ENE,61,0.0,4.0,47,0.00,,,0.00,Wunderground v.1.15,2013-09-20 21:45:00,
2013-09-20 15:55:00,65.9,43.9,29.58,ESE,104,0.0,4.0,45,0.00,,,0.00,Wunderground v.1.15,2013-09-20 21:55:00,
2013-09-20 16:00:00,66.5,43.9,29.58,ESE,107,0.0,6.0,44,0.00,,,0.00,Wunderground v.1.15,2013-09-20 22:00:00,
2013-09-20 16:05:00,66.5,45.6,29.58,East,85,1.0,6.0,47,0.00,,,0.00,Wunderground v.1.15,2013-09-20 22:05:00,
2013-09-20 16:10:00,66.3,46.6,29.58,ENE,76,0.0,4.0,49,0.00,,,0.00,Wunderground v.1.15,2013-09-20 22:10:00,
2013-09-20 16:15:00,66.1,46.4,29.58,ENE,59,0.0,4.0,49,0.00,,,0.00,Wunderground v.1.15,2013-09-20 22:15:00,
2013-09-20 16:20:00,65.7,46.0,29.58,ENE,69,0.0,4.0,49,0.00,,,0.00,Wunderground v.1.15,2013-09-20 22:20:00,
2013-09-20 16:25:00,65.5,46.9,29.58,ENE,75,0.0,4.0,51,0.00,,,0.00,Wunderground v.1.15,2013-09-20 22:25:00,
2013-09-20 16:30:00,65.2,46.6,29.58,East,91,0.0,4.0,51,0.00,,,0.00,Wunderground v.1.15,2013-09-20 22:30:00,
2013-09-20 16:35:00,65.1,45.5,29.58,East,100,0.0,4.0,49,0.00,,,0.00,Wunderground v.1.15,2013-09-20 22:35:00,
2013-09-20 16:40:00,64.8,45.7,29.58,East,96,1.0,4.0,50,0.00,,,0.00,Wunderground v.1.15,2013-09-20 22:40:00,
2013-09-20 16:45:00,64.6,47.1,29.58,ESE,107,1.0,4.0,53,0.00,,,0.00,Wunderground v.1.15,2013-09-20 22:45:00,
2013-09-20 16:50:00,64.5,44.9,29.57,ESE,104,0.0,4.0,49,0.00,,,0.00,Wunderground v.1.15,2013-09-20 22:50:00,
2013-09-20 16:55:00,64.4,45.3,29.57,ESE,109,0.0,4.0,50,0.00,,,0.00,Wunderground v.1.15,2013-09-20 22:55:00,
2013-09-20 17:00:00,64.4,45.3,29.58,ESE,109,0.0,4.0,50,0.00,,,0.00,Wunderground v.1.15,2013-09-20 23:00:00,
2013-09-20 17:05:00,64.3,46.3,29.58,ENE,59,0.0,4.0,52,0.00,,,0.00,Wunderground v.1.15,2013-09-20 23:05:00,
2013-09-20 17:10:00,63.7,46.7,29.58,East,80,0.0,4.0,54,0.00,,,0.00,Wunderground v.1.15,2013-09-20 23:10:00,
2013-09-20 17:15:00,63.0,46.1,29.58,ENE,69,0.0,4.0,54,0.00,,,0.00,Wunderground v.1.15,2013-09-20 23:15:00,
2013-09-20 17:20:00,62.5,46.6,29.57,East,81,0.0,4.0,56,0.00,,,0.00,Wunderground v.1.15,2013-09-20 23:20:00,
2013-09-20 17:25:00,61.8,46.4,29.57,East,90,0.0,4.0,57,0.00,,,0.00,Wunderground v.1.15,2013-09-20 23:25:00,
2013-09-20 17:30:00,61.4,46.5,29.58,East,90,0.0,4.0,58,0.00,,,0.00,Wunderground v.1.15,2013-09-20 23:30:00,
2013-09-20 17:35:00,61.1,46.2,29.57,East,90,0.0,4.0,58,0.00,,,0.00,Wunderground v.1.15,2013-09-20 23:35:00,
2013-09-20 17:40:00,60.7,46.3,29.58,East,90,0.0,4.0,59,0.00,,,0.00,Wunderground v.1.15,2013-09-20 23:40:00,
2013-09-20 17:45:00,60.4,45.5,29.58,East,90,0.0,4.0,58,0.00,,,0.00,Wunderground v.1.15,2013-09-20 23:45:00,
2013-09-20 17:50:00,60.2,45.8,29.58,East,90,0.0,4.0,59,0.00,,,0.00,Wunderground v.1.15,2013-09-20 23:50:00,
2013-09-20 17:55:00,59.9,45.5,29.57,East,90,0.0,4.0,59,0.00,,,0.00,Wunderground v.1.15,2013-09-20 23:55:00,
2013-09-20 18:00:00,59.6,45.7,29.57,East,90,0.0,4.0,60,0.00,,,0.00,Wunderground v.1.15,2013-09-21 00:00:00,
2013-09-20 18:05:00,59.3,45.4,29.57,East,90,0.0,4.0,60,0.00,,,0.00,Wunderground v.1.15,2013-09-21 00:05:00,
2013-09-20 18:10:00,59.1,46.1,29.57,East,90,0.0,4.0,62,0.00,,,0.00,Wunderground v.1.15,2013-09-21 00:10:00,
2013-09-20 18:15:00,58.8,45.8,29.58,East,90,0.0,4.0,62,0.00,,,0.00,Wunderground v.1.15,2013-09-21 00:15:00,
2013-09-20 18:20:00,58.4,46.3,29.58,East,90,0.0,4.0,64,0.00,,,0.00,Wunderground v.1.15,2013-09-21 00:20:00,
2013-09-20 18:25:00,57.8,46.5,29.58,East,90,0.0,4.0,66,0.00,,,0.00,Wunderground v.1.15,2013-09-21 00:25:00,
2013-09-20 18:30:00,57.4,46.1,29.58,East,90,0.0,4.0,66,0.00,,,0.00,Wunderground v.1.15,2013-09-21 00:30:00,
2013-09-20 18:35:00,56.8,46.7,29.58,East,90,0.0,4.0,69,0.00,,,0.00,Wunderground v.1.15,2013-09-21 00:35:00,
2013-09-20 18:40:00,56.2,46.5,29.58,East,90,0.0,4.0,70,0.00,,,0.00,Wunderground v.1.15,2013-09-21 00:40:00,
2013-09-20 18:45:00,55.8,46.5,29.58,East,90,0.0,4.0,71,0.00,,,0.00,Wunderground v.1.15,2013-09-21 00:45:00,
2013-09-20 18:50:00,55.6,46.7,29.58,East,90,0.0,4.0,72,0.00,,,0.00,Wunderground v.1.15,2013-09-21 00:50:00,
2013-09-20 18:55:00,55.4,46.9,29.58,East,90,0.0,4.0,73,0.00,,,0.00,Wunderground v.1.15,2013-09-21 00:55:00,
2013-09-20 19:05:00,54.6,46.8,29.59,East,90,0.0,4.0,75,0.00,,,0.00,Wunderground v.1.15,2013-09-21 01:05:00,
2013-09-20 19:15:00,53.2,46.5,29.59,East,90,0.0,4.0,78,0.00,,,0.00,Wunderground v.1.15,2013-09-21 01:15:00,
2013-09-20 19:20:00,52.5,46.2,29.59,East,90,0.0,4.0,79,0.00,,,0.00,Wunderground v.1.15,2013-09-21 01:20:00,
2013-09-20 19:25:00,51.8,45.8,29.59,East,90,0.0,4.0,80,0.00,,,0.00,Wunderground v.1.15,2013-09-21 01:25:00,
2013-09-20 19:30:00,51.2,45.6,29.59,East,90,0.0,4.0,81,0.00,,,0.00,Wunderground v.1.15,2013-09-21 01:30:00,
2013-09-20 19:35:00,50.7,45.4,29.59,East,90,0.0,4.0,82,0.00,,,0.00,Wunderground v.1.15,2013-09-21 01:35:00,
2013-09-20 19:40:00,50.2,45.2,29.59,East,90,0.0,4.0,83,0.00,,,0.00,Wunderground v.1.15,2013-09-21 01:40:00,
2013-09-20 19:45:00,49.7,45.4,29.60,East,90,0.0,4.0,85,0.00,,,0.00,Wunderground v.1.15,2013-09-21 01:45:00,
2013-09-20 19:50:00,49.4,45.4,29.60,East,90,0.0,4.0,86,0.00,,,0.00,Wunderground v.1.15,2013-09-21 01:50:00,
2013-09-20 19:55:00,49.2,45.5,29.60,East,90,0.0,4.0,87,0.00,,,0.00,Wunderground v.1.15,2013-09-21 01:55:00,
2013-09-20 20:00:00,49.4,45.7,29.60,East,90,0.0,4.0,87,0.00,,,0.00,Wunderground v.1.15,2013-09-21 02:00:00,
2013-09-20 20:05:00,49.9,46.2,29.61,East,90,0.0,4.0,87,0.00,,,0.00,Wunderground v.1.15,2013-09-21 02:05:00,
2013-09-20 20:10:00,50.7,46.4,29.61,East,90,0.0,4.0,85,0.00,,,0.00,Wunderground v.1.15,2013-09-21 02:10:00,
2013-09-20 20:15:00,50.8,46.1,29.61,East,90,0.0,4.0,84,0.00,,,0.00,Wunderground v.1.15,2013-09-21 02:15:00,
2013-09-20 20:20:00,50.6,45.9,29.61,East,90,0.0,4.0,84,0.00,,,0.00,Wunderground v.1.15,2013-09-21 02:20:00,
2013-09-20 20:25:00,50.3,45.6,29.61,East,90,0.0,4.0,84,0.00,,,0.00,Wunderground v.1.15,2013-09-21 02:25:00,
2013-09-20 20:30:00,49.8,45.5,29.62,East,90,0.0,4.0,85,0.00,,,0.00,Wunderground v.1.15,2013-09-21 02:30:00,
2013-09-20 20:35:00,49.7,45.7,29.62,East,90,0.0,4.0,86,0.00,,,0.00,Wunderground v.1.15,2013-09-21 02:35:00,
2013-09-20 20:40:00,49.9,45.9,29.62,East,90,0.0,4.0,86,0.00,,,0.00,Wunderground v.1.15,2013-09-21 02:40:00,
2013-09-20 20:45:00,50.0,46.0,29.62,East,90,0.0,4.0,86,0.00,,,0.00,Wunderground v.1.15,2013-09-21 02:45:00,
2013-09-20 20:50:00,50.0,46.9,29.62,East,90,0.0,4.0,89,0.00,,,0.00,Wunderground v.1.15,2013-09-21 02:50:00,
2013-09-20 20:55:00,50.0,46.0,29.62,East,90,0.0,4.0,86,0.00,,,0.00,Wunderground v.1.15,2013-09-21 02:55:00,
2013-09-20 21:00:00,50.0,46.0,29.63,East,90,0.0,4.0,86,0.00,,,0.00,Wunderground v.1.15,2013-09-21 03:00:00,
2013-09-20 21:05:00,49.9,45.9,29.63,East,90,0.0,4.0,86,0.00,,,0.00,Wunderground v.1.15,2013-09-21 03:05:00,
2013-09-20 21:10:00,49.8,45.8,29.63,East,90,0.0,4.0,86,0.00,,,0.00,Wunderground v.1.15,2013-09-21 03:10:00,
2013-09-20 21:20:00,49.6,45.6,29.63,East,90,0.0,4.0,86,0.00,,,0.00,Wunderground v.1.15,2013-09-21 03:20:00,
2013-09-20 21:25:00,49.4,45.4,29.63,East,90,0.0,4.0,86,0.00,,,0.00,Wunderground v.1.15,2013-09-21 03:25:00,
2013-09-20 21:30:00,49.2,45.5,29.63,East,90,0.0,4.0,87,0.00,,,0.00,Wunderground v.1.15,2013-09-21 03:30:00,
2013-09-20 21:35:00,48.8,45.1,29.63,East,90,0.0,4.0,87,0.00,,,0.00,Wunderground v.1.15,2013-09-21 03:35:00,
2013-09-20 21:40:00,48.6,45.2,29.63,East,90,0.0,4.0,88,0.00,,,0.00,Wunderground v.1.15,2013-09-21 03:40:00,
2013-09-20 21:45:00,48.3,44.9,29.63,East,90,0.0,4.0,88,0.00,,,0.00,Wunderground v.1.15,2013-09-21 03:45:00,
2013-09-20 21:50:00,48.0,44.6,29.63,East,90,0.0,4.0,88,0.00,,,0.00,Wunderground v.1.15,2013-09-21 03:50:00,
2013-09-20 21:55:00,47.4,44.0,29.63,East,90,0.0,4.0,88,0.00,,,0.00,Wunderground v.1.15,2013-09-21 03:55:00,
2013-09-20 22:00:00,46.9,43.8,29.63,East,90,0.0,4.0,89,0.00,,,0.00,Wunderground v.1.15,2013-09-21 04:00:00,
2013-09-20 22:05:00,46.6,44.1,29.63,East,90,0.0,4.0,91,0.00,,,0.00,Wunderground v.1.15,2013-09-21 04:05:00,
2013-09-20 22:10:00,46.5,44.0,29.63,East,90,0.0,4.0,91,0.00,,,0.00,Wunderground v.1.15,2013-09-21 04:10:00,
2013-09-20 22:15:00,46.2,43.7,29.63,East,90,0.0,4.0,91,0.00,,,0.00,Wunderground v.1.15,2013-09-21 04:15:00,
2013-09-20 22:20:00,46.0,43.8,29.63,East,90,0.0,4.0,92,0.00,,,0.00,Wunderground v.1.15,2013-09-21 04:20:00,
2013-09-20 22:25:00,45.8,43.6,29.63,East,90,0.0,4.0,92,0.00,,,0.00,Wunderground v.1.15,2013-09-21 04:25:00,
2013-09-20 22:30:00,45.6,43.4,29.63,East,90,0.0,4.0,92,0.00,,,0.00,Wunderground v.1.15,2013-09-21 04:30:00,
2013-09-20 22:35:00,45.4,43.2,29.63,East,90,0.0,4.0,92,0.00,,,0.00,Wunderground v.1.15,2013-09-21 04:35:00,
2013-09-20 22:45:00,45.1,43.2,29.63,East,90,0.0,4.0,93,0.00,,,0.00,Wunderground v.1.15,2013-09-21 04:45:00,
2013-09-20 22:50:00,45.0,43.4,29.63,East,90,0.0,4.0,94,0.00,,,0.00,Wunderground v.1.15,2013-09-21 04:50:00,
2013-09-20 22:55:00,44.9,43.0,29.63,East,90,0.0,4.0,93,0.00,,,0.00,Wunderground v.1.15,2013-09-21 04:55:00,
2013-09-20 23:00:00,44.7,43.1,29.64,East,90,0.0,4.0,94,0.00,,,0.00,Wunderground v.1.15,2013-09-21 05:00:00,
2013-09-20 23:05:00,44.5,42.9,29.64,East,90,0.0,4.0,94,0.00,,,0.00,Wunderground v.1.15,2013-09-21 05:05:00,
2013-09-20 23:10:00,44.4,42.8,29.64,East,90,0.0,4.0,94,0.00,,,0.00,Wunderground v.1.15,2013-09-21 05:10:00,
2013-09-20 23:15:00,44.3,42.7,29.64,East,90,0.0,4.0,94,0.00,,,0.00,Wunderground v.1.15,2013-09-21 05:15:00,
2013-09-20 23:25:00,44.3,43.0,29.64,East,90,0.0,4.0,95,0.00,,,0.00,Wunderground v.1.15,2013-09-21 05:25:00,
2013-09-20 23:30:00,44.2,42.6,29.64,East,90,0.0,4.0,94,0.00,,,0.00,Wunderground v.1.15,2013-09-21 05:30:00,
2013-09-20 23:35:00,44.0,42.7,29.64,East,90,0.0,4.0,95,0.00,,,0.00,Wunderground v.1.15,2013-09-21 05:35:00,
2013-09-20 23:45:00,43.7,42.4,29.65,East,90,0.0,4.0,95,0.00,,,0.00,Wunderground v.1.15,2013-09-21 05:45:00,
2013-09-20 23:50:00,43.6,42.3,29.65,East,90,0.0,4.0,95,0.00,,,0.00,Wunderground v.1.15,2013-09-21 05:50:00,
2013-09-20 23:55:00,43.6,42.3,29.65,East,90,0.0,4.0,95,0.00,,,0.00,Wunderground v.1.15,2013-09-21 05:55:00,